Weather History for Jacksonville, FL

Change the Weather History Date:

Tuesday, August 27, 2013

  Actual Average Record
Temperature  
Mean Temperature 79 °F 81 °F  
Max Temperature 86 °F 90 °F 99 °F (2011)
Min Temperature 72 °F 72 °F 64 °F (1984)
Degree Days  
Heating Degree Days 0 0  
Month to date heating degree days 0 0  
Since 1 June heating degree days 0 0  
Since 1 July heating degree days 0 0  
Cooling Degree Days 14 16  
Month to date cooling degree days 463 455  
Year to date cooling degree days 1862 1924  
Since 1 June cooling degree days 1426 1440  
Growing Degree Days 20 (Base 50)    
Moisture  
Dew Point 68 °F    
Average Humidity 73    
Maximum Humidity 94    
Minimum Humidity 51    
Precipitation  
Precipitation 0.00 in 0.26 in 3.42 in (1893)
Month to date precipitation 4.77 5.78  
Year to date precipitation 35.18 34.34  
Snow  
Snow 0.00 in 0.00 in 0.00 in (2002)
Month to date snowfall 0.0 0.0  
Since 1 June snowfall 0.0 0.0  
Since 1 July snowfall 0.0 0.0  
Snow Depth 0.00 in    
Sea Level Pressure  
Sea Level Pressure 30.07 in    
Wind  
Wind Speed 5 mph (ENE)    
Max Wind Speed 13 mph    
Max Gust Speed 15 mph    
Visibility 10 miles    
Events      
T = Trace of Precipitation, MM = Missing Value Source: NWS Daily Summary

Daily Weather History Graph

Daily Weather History Graph

Search for Another Location

Airport:

Trip Planner

Search our weather history database for the weather conditions in past years. The results will help you decide how hot, cold, wet, or windy it might be!

Date:

Astronomy

Aug. 27, 2013 Rise Set
Actual Time 7:00 AM EDT 7:55 PM EDT
Civil Twilight 6:35 AM EDT 8:19 PM EDT
Nautical Twilight 6:06 AM EDT 8:48 PM EDT
Astronomical Twilight 5:36 AM EDT 9:18 PM EDT
Moon No Moon Rise 1:26 PM EDT (8/27)
Length of Visible Light 13h 43m
Length of Day
12h 54m
Waning Gibbous, 57% of the Moon is Illuminated
Aug 27
Waning Gibbous
Aug 28
Last Quarter
Sep 5
New
Sep 12
First Quarter
Sep 19
Full

Hourly Weather History & Observations

Time (EDT) Temp. Heat Index Dew Point Humidity Pressure Visibility Wind Dir Wind Speed Gust Speed Precip Events Conditions
12:56 AM 73.9 °F - 72.0 °F 93% 30.12 in 10.0 mi NNE 5.8 mph - N/A   Mostly Cloudy
1:56 AM 73.9 °F - 71.1 °F 91% 30.10 in 10.0 mi NE 5.8 mph - N/A   Mostly Cloudy
2:56 AM 73.9 °F - 71.1 °F 91% 30.09 in 10.0 mi NE 10.4 mph - N/A   Overcast
3:56 AM 75.0 °F - 72.0 °F 90% 30.08 in 10.0 mi Calm Calm - N/A   Mostly Cloudy
4:56 AM 73.9 °F - 71.1 °F 91% 30.06 in 10.0 mi Calm Calm - N/A   Mostly Cloudy
5:56 AM 73.9 °F - 72.0 °F 93% 30.07 in 10.0 mi Calm Calm - N/A   Mostly Cloudy
6:56 AM 73.9 °F - 72.0 °F 93% 30.08 in 10.0 mi NNE 3.5 mph - N/A   Mostly Cloudy
7:56 AM 75.0 °F - 73.0 °F 94% 30.09 in 10.0 mi Calm Calm - N/A   Mostly Cloudy
8:56 AM 78.1 °F - 73.9 °F 87% 30.09 in 10.0 mi NNE 3.5 mph - N/A   Mostly Cloudy
9:56 AM 81.0 °F 86.2 °F 73.9 °F 79% 30.09 in 10.0 mi NE 4.6 mph - N/A   Mostly Cloudy
10:51 AM 53.6 °F - 48.2 °F 82% 30.31 in 10.0 mi Calm Calm - N/A   Scattered Clouds
10:56 AM 82.9 °F 85.8 °F 68.0 °F 60% 30.09 in 10.0 mi ENE 8.1 mph - N/A   Mostly Cloudy
11:56 AM 84.9 °F 88.2 °F 68.0 °F 57% 30.09 in 10.0 mi ENE 9.2 mph - N/A   Mostly Cloudy
12:56 PM 84.9 °F 87.6 °F 66.9 °F 55% 30.08 in 10.0 mi ENE 6.9 mph - N/A   Mostly Cloudy
1:56 PM 84.9 °F 87.6 °F 66.9 °F 55% 30.07 in 10.0 mi East 9.2 mph - N/A   Mostly Cloudy
2:56 PM 84.9 °F 87.6 °F 66.9 °F 55% 30.06 in 10.0 mi East 9.2 mph - N/A   Mostly Cloudy
3:56 PM 84.9 °F 87.1 °F 66.0 °F 53% 30.04 in 10.0 mi East 10.4 mph - N/A   Mostly Cloudy
4:56 PM 84.0 °F 86.3 °F 66.0 °F 55% 30.03 in 10.0 mi Variable 4.6 mph - N/A   Mostly Cloudy
5:56 PM 84.0 °F 85.8 °F 64.9 °F 53% 30.03 in 10.0 mi ESE 10.4 mph - N/A   Mostly Cloudy
6:56 PM 82.0 °F 83.8 °F 64.9 °F 56% 30.02 in 10.0 mi SE 9.2 mph - N/A   Mostly Cloudy
7:56 PM 79.0 °F - 64.9 °F 62% 30.02 in 10.0 mi East 3.5 mph - N/A   Mostly Cloudy
8:56 PM 77.0 °F - 68.0 °F 74% 30.04 in 10.0 mi SSE 4.6 mph - N/A   Mostly Cloudy
9:56 PM 75.9 °F - 69.1 °F 79% 30.05 in 10.0 mi Calm Calm - N/A   Mostly Cloudy
10:56 PM 73.0 °F - 69.1 °F 87% 30.06 in 10.0 mi Calm Calm - N/A   Scattered Clouds
11:56 PM 72.0 °F - 69.1 °F 91% 30.06 in 10.0 mi Calm Calm - N/A   Scattered Clouds